Flag for U.S.A. Weather past 2 weeks in Anaheim, California, U.S.A.

Now
85 °F

Sunny.


Feels Like: 85 °F
Forecast: 67 / 89 °F
Wind: 8 mph from South

Location: Fullerton Municipal Airport

Current Time: Jul 29, 2014 at 1:55:27 PM

Latest Report: Jul 29, 2014 at 12:53 PM


Visibility: 10 mi

Pressure: 29.98 "Hg

Humidity: 43%

Dew point: 60 °F

Location of AnaheimLocation

Historic Weather in Anaheim — Graph

°F

Anaheim temperature yesterday

Maximum temperature yesterday: 91 °F (at 3:53 PM)
Minimum temperature yesterday: 71 °F (at 2:53 AM)
Average temperature yesterday: 79 °F

Past Weeks' High & Low Weather Summary

 TemperatureHumidityPressure
High96 °F (Jul 24, 3:53 PM)85% (Jul 22, 6:53 AM)30.06 "Hg (Jul 22, 6:53 AM)
Low65 °F (Jul 18, 5:53 AM)16% (Jul 28, 5:53 PM)29.71 "Hg (Jul 24, 5:53 PM)
Average75 °F61%29.95 "Hg
* Reported Jul 14 12:53 PM — Jul 29 12:53 PM, Anaheim, Weather by CustomWeather, © 2014

Note: Actual official high and low records may vary slightly from our data, if they occured in-between our weather recording intervals... More about our weather records

Advertising

Anaheim weather history for previous 24 hours

 ConditionsComfort  
Time TempWeatherWind HumidityBarometerVisibility
12:53 PM
Jul 29
85 °FSunny.8 mph43%29.98 "Hg10 mi
11:53 AM88 °FSunny.No wind33%29.99 "Hg10 mi
10:53 AM84 °FSunny.3 mph33%30.01 "Hg10 mi
9:53 AM79 °FSunny.No wind50%30.01 "Hg10 mi
8:53 AM76 °FSunny.5 mph56%30.03 "Hg10 mi
7:53 AM75 °FSunny.No wind64%30.03 "Hg9 mi
6:53 AM72 °FMild.3 mph71%30.01 "Hg10 mi
5:53 AM71 °FMild.No wind76%30.00 "Hg10 mi
4:53 AM70 °FClear.No wind79%30.00 "Hg10 mi
3:53 AM71 °FClear.No wind76%30.00 "Hg10 mi
2:53 AM72 °FClear.3 mph71%30.00 "Hg10 mi
1:53 AM73 °FClear.No wind64%30.01 "Hg10 mi
12:53 AM73 °FClear.No wind64%30.01 "Hg10 mi
11:53 PM
Jul 28
73 °FClear.3 mph66%30.01 "Hg10 mi
10:53 PM73 °FClear.3 mph69%30.01 "Hg10 mi
9:53 PM75 °FClear.3 mph62%30.01 "Hg10 mi
8:53 PM76 °FSunny.5 mph52%29.99 "Hg10 mi
7:53 PM80 °FSunny.7 mph29%29.98 "Hg10 mi
6:53 PM86 °FSunny.9 mph16%29.96 "Hg10 mi
5:53 PM89 °FSunny.8 mph16%29.94 "Hg10 mi
4:53 PM91 °FSunny.7 mph25%29.96 "Hg10 mi
3:53 PM91 °FSunny.3 mph26%29.97 "Hg10 mi
2:53 PM90 °FSunny.8 mph28%29.99 "Hg10 mi
1:53 PM87 °FSunny.10 mph37%30.01 "Hg10 mi
Weather by CustomWeather, © 2014

See weather overviewHow to use our weather pages